WMT7389 LICC-LATI

Flight info

Callsign WMT7389
Flight time 0h 54m
Altitude 34000
Route PIMOR DCT DODEL DCT LUPAL DCT GOKEL M26 DITAN
Aircraft A321/M-SDE3FGHIRWY/LB1

Departure

Time 2026-05-07 17:20
Airport Catania-Fontanarossa Airport (LICC)

Arrival

Time 2026-05-07 18:15
Airport Tirana International Airport Mother Teresa (LATI)
Time Latitude Longitude Altitude Speed Heading
2026-05-07 16:40 37.46957 15.06470 22 ft 0 kts 19°
2026-05-07 17:13 37.46941 15.06463 22 ft 3 kts 19°
2026-05-07 17:13 37.46922 15.06455 24 ft 3 kts 19°
2026-05-07 17:13 37.46908 15.06449 25 ft 0 kts 19°
2026-05-07 17:15 37.46909 15.06449 23 ft 1 kts 19°
2026-05-07 17:16 37.46920 15.06426 22 ft 7 kts 264°
2026-05-07 17:16 37.46884 15.06411 22 ft 6 kts 172°
2026-05-07 17:16 37.46840 15.06412 22 ft 6 kts 209°
2026-05-07 17:16 37.46820 15.06363 22 ft 7 kts 264°
2026-05-07 17:17 37.46815 15.06297 22 ft 8 kts 264°
2026-05-07 17:17 37.46806 15.06194 22 ft 15 kts 264°
2026-05-07 17:17 37.46795 15.06054 22 ft 16 kts 264°
2026-05-07 17:17 37.46782 15.05908 22 ft 17 kts 264°
2026-05-07 17:18 37.46769 15.05756 22 ft 18 kts 264°
2026-05-07 17:18 37.46756 15.05598 22 ft 18 kts 264°
2026-05-07 17:18 37.46745 15.05459 22 ft 9 kts 263°
2026-05-07 17:18 37.46737 15.05374 22 ft 10 kts 263°
2026-05-07 17:19 37.46704 15.05295 21 ft 11 kts 223°
2026-05-07 17:19 37.46645 15.05226 23 ft 12 kts 223°
2026-05-07 17:19 37.46570 15.05197 21 ft 10 kts 176°
2026-05-07 17:19 37.46561 15.05241 21 ft 6 kts 83°
2026-05-07 17:20 37.46570 15.05333 21 ft 25 kts 83°
2026-05-07 17:20 37.46614 15.05865 22 ft 95 kts 83°
2026-05-07 17:20 37.46709 15.06946 29 ft 150 kts 81°
2026-05-07 17:20 37.46828 15.08267 675 ft 146 kts 82°
2026-05-07 17:21 37.46966 15.09531 1332 ft 147 kts 81°
2026-05-07 17:21 37.47142 15.10860 1641 ft 164 kts 81°
2026-05-07 17:21 37.47346 15.12367 1853 ft 186 kts 83°
2026-05-07 17:21 37.47578 15.14064 2039 ft 208 kts 82°
2026-05-07 17:22 37.47839 15.15968 2230 ft 233 kts 81°
2026-05-07 17:22 37.48130 15.18069 2644 ft 251 kts 82°
2026-05-07 17:22 37.48433 15.20255 3305 ft 257 kts 81°
2026-05-07 17:22 37.48741 15.22496 3985 ft 262 kts 82°
2026-05-07 17:23 37.49057 15.24789 4672 ft 268 kts 82°
2026-05-07 17:23 37.49382 15.27116 5328 ft 273 kts 82°
2026-05-07 17:23 37.49711 15.29475 5964 ft 280 kts 82°
2026-05-07 17:23 37.50050 15.31916 6582 ft 286 kts 82°
2026-05-07 17:24 37.50395 15.34402 7212 ft 290 kts 82°
2026-05-07 17:24 37.50742 15.36924 7866 ft 294 kts 82°
2026-05-07 17:24 37.51095 15.39483 8534 ft 298 kts 82°
2026-05-07 17:24 37.51453 15.42073 9188 ft 302 kts 82°
2026-05-07 17:25 37.51816 15.44697 9835 ft 306 kts 82°
2026-05-07 17:25 37.52186 15.47382 10207 ft 321 kts 82°
2026-05-07 17:25 37.52577 15.50253 10342 ft 343 kts 82°
2026-05-07 17:25 37.52991 15.53302 10472 ft 363 kts 82°
2026-05-07 17:26 37.53428 15.56505 10726 ft 378 kts 82°
2026-05-07 17:26 37.53878 15.59801 11252 ft 383 kts 82°
2026-05-07 17:26 37.54332 15.63131 11808 ft 388 kts 82°
2026-05-07 17:26 37.54791 15.66500 12393 ft 392 kts 81°
2026-05-07 17:27 37.55254 15.69903 12991 ft 396 kts 82°
2026-05-07 17:27 37.55717 15.73342 13574 ft 400 kts 82°
2026-05-07 17:27 37.56184 15.76818 14095 ft 404 kts 81°
2026-05-07 17:27 37.56655 15.80326 14626 ft 408 kts 81°
2026-05-07 17:28 37.57130 15.83869 15152 ft 412 kts 81°
2026-05-07 17:28 37.57591 15.87449 15678 ft 416 kts 83°
2026-05-07 17:28 37.57965 15.91080 16201 ft 420 kts 84°
2026-05-07 17:28 37.58266 15.94705 16723 ft 423 kts 85°
2026-05-07 17:29 37.58542 15.98465 17244 ft 427 kts 86°
2026-05-07 17:29 37.58805 16.02163 17754 ft 431 kts 85°
2026-05-07 17:29 37.59081 16.05944 18247 ft 435 kts 85°
2026-05-07 17:29 37.59377 16.09760 18690 ft 439 kts 85°
2026-05-07 17:30 37.59771 16.13592 19124 ft 443 kts 78°
2026-05-07 17:30 37.60641 16.17340 19561 ft 446 kts 68°
2026-05-07 17:30 37.62009 16.20859 19995 ft 448 kts 57°
2026-05-07 17:30 37.63841 16.24042 20419 ft 449 kts 46°
2026-05-07 17:31 37.65989 16.26913 20847 ft 451 kts 44°
2026-05-07 17:31 37.68168 16.29796 21263 ft 454 kts 44°
2026-05-07 17:31 37.70346 16.32690 21679 ft 457 kts 44°
2026-05-07 17:31 37.72541 16.35613 22080 ft 460 kts 44°
2026-05-07 17:32 37.74746 16.38560 22478 ft 463 kts 44°
2026-05-07 17:32 37.76969 16.41535 22867 ft 466 kts 44°
2026-05-07 17:32 37.79201 16.44523 23250 ft 469 kts 44°
2026-05-07 17:32 37.80688 16.46514 23507 ft 471 kts 44°
2026-05-07 17:33 37.83705 16.50553 23928 ft 474 kts 44°
2026-05-07 17:33 37.85977 16.53594 24265 ft 477 kts 44°
2026-05-07 17:33 37.88262 16.56648 24581 ft 479 kts 44°
2026-05-07 17:33 37.90558 16.59719 24900 ft 481 kts 44°
2026-05-07 17:34 37.92862 16.62810 25227 ft 484 kts 44°
2026-05-07 17:34 37.95175 16.65921 25546 ft 486 kts 44°
2026-05-07 17:34 37.97499 16.69049 25851 ft 489 kts 44°
2026-05-07 17:34 37.99836 16.72192 26150 ft 491 kts 44°
2026-05-07 17:35 38.02183 16.75353 26444 ft 493 kts 44°
2026-05-07 17:35 38.04539 16.78532 26747 ft 496 kts 44°
2026-05-07 17:35 38.06872 16.81686 27024 ft 498 kts 44°
2026-05-07 17:35 38.09247 16.84903 27307 ft 500 kts 44°
2026-05-07 17:36 38.11632 16.88136 27597 ft 503 kts 44°
2026-05-07 17:36 38.14035 16.91391 27891 ft 505 kts 44°
2026-05-07 17:36 38.16447 16.94654 28173 ft 508 kts 43°
2026-05-07 17:36 38.18869 16.97936 28449 ft 510 kts 43°
2026-05-07 17:37 38.21297 17.01237 28786 ft 511 kts 44°
2026-05-07 17:37 38.23718 17.04539 29193 ft 510 kts 43°
2026-05-07 17:37 38.26138 17.07838 29586 ft 510 kts 43°
2026-05-07 17:37 38.28557 17.11137 29966 ft 510 kts 43°
2026-05-07 17:38 38.30978 17.14442 30298 ft 509 kts 43°
2026-05-07 17:38 38.33391 17.17738 30649 ft 508 kts 43°
2026-05-07 17:38 38.35797 17.21027 30989 ft 507 kts 43°
2026-05-07 17:38 38.38206 17.24318 31322 ft 506 kts 42°
2026-05-07 17:39 38.40599 17.27586 31682 ft 505 kts 42°
2026-05-07 17:39 38.42992 17.30865 32041 ft 503 kts 42°
2026-05-07 17:39 38.45371 17.34133 32378 ft 502 kts 42°
2026-05-07 17:39 38.47743 17.37398 32730 ft 501 kts 42°
2026-05-07 17:40 38.50109 17.40655 33074 ft 500 kts 42°
2026-05-07 17:40 38.52469 17.43906 33411 ft 499 kts 41°
2026-05-07 17:40 38.54824 17.47153 33717 ft 498 kts 41°
2026-05-07 17:40 38.57178 17.50400 33946 ft 498 kts 41°
2026-05-07 17:41 38.61876 17.56880 33990 ft 496 kts 41°
2026-05-07 17:41 38.66528 17.63321 33988 ft 496 kts 41°
2026-05-07 17:42 38.71207 17.69832 33997 ft 496 kts 41°
2026-05-07 17:42 38.75872 17.76342 33996 ft 497 kts 41°
2026-05-07 17:43 38.80556 17.82857 34006 ft 497 kts 41°
2026-05-07 17:43 38.85236 17.89381 34011 ft 497 kts 41°
2026-05-07 17:44 38.89911 17.95941 34016 ft 497 kts 41°
2026-05-07 17:44 38.94583 18.02492 34020 ft 497 kts 41°
2026-05-07 17:45 38.98470 18.07936 34019 ft 497 kts 41°
2026-05-07 17:45 39.02956 18.14250 34025 ft 497 kts 41°
2026-05-07 17:46 39.07615 18.20828 34030 ft 497 kts 41°
2026-05-07 17:46 39.12283 18.27436 34030 ft 498 kts 41°
2026-05-07 17:47 39.16942 18.34036 34036 ft 498 kts 41°
2026-05-07 17:47 39.21163 18.40031 34021 ft 499 kts 41°
2026-05-07 17:49 39.24405 18.44636 33980 ft 500 kts 40°
2026-05-07 17:49 39.29132 18.51366 34026 ft 510 kts 41°
2026-05-07 17:50 39.33902 18.58177 34030 ft 513 kts 41°
2026-05-07 17:50 39.38686 18.65028 34032 ft 513 kts 41°
2026-05-07 17:51 39.43606 18.71640 34033 ft 503 kts 31°
2026-05-07 17:51 39.49399 18.76335 34042 ft 482 kts 14°
2026-05-07 17:52 39.52509 18.77810 34046 ft 470 kts
2026-05-07 17:52 39.55666 18.78700 34044 ft 460 kts 358°
2026-05-07 17:52 39.61994 18.79945 34052 ft 461 kts 358°
2026-05-07 17:53 39.68333 18.81238 34056 ft 461 kts 358°
2026-05-07 17:53 39.74681 18.82536 34054 ft 461 kts 358°
2026-05-07 17:54 39.81034 18.83826 34058 ft 461 kts 358°
2026-05-07 17:54 39.87375 18.85111 34035 ft 462 kts 358°
2026-05-07 17:55 39.90548 18.85756 33771 ft 461 kts 358°
2026-05-07 17:55 39.93726 18.86400 33511 ft 461 kts 358°
2026-05-07 17:55 39.96856 18.87031 33245 ft 462 kts 358°
2026-05-07 17:55 40.00044 18.87675 32377 ft 467 kts 359°
2026-05-07 17:56 40.03275 18.88331 31532 ft 472 kts
2026-05-07 17:56 40.06534 18.88999 30646 ft 477 kts
2026-05-07 17:56 40.09836 18.89676 29566 ft 484 kts
2026-05-07 17:56 40.13174 18.90359 28565 ft 486 kts
2026-05-07 17:57 40.16497 18.91044 28044 ft 480 kts
2026-05-07 17:57 40.18720 18.91505 27595 ft 477 kts
2026-05-07 17:57 40.23052 18.92403 26753 ft 473 kts
2026-05-07 17:57 40.26290 18.93073 26111 ft 469 kts
2026-05-07 17:58 40.29503 18.93738 25484 ft 466 kts
2026-05-07 17:58 40.32690 18.94396 24866 ft 462 kts
2026-05-07 17:58 40.35854 18.95047 24249 ft 459 kts
2026-05-07 17:58 40.38997 18.95692 23637 ft 456 kts
2026-05-07 17:59 40.42120 18.96331 22961 ft 452 kts
2026-05-07 17:59 40.45208 18.96964 22368 ft 446 kts
2026-05-07 17:59 40.48257 18.97593 21796 ft 441 kts
2026-05-07 17:59 40.51270 18.98220 21226 ft 436 kts
2026-05-07 18:00 40.54253 18.98846 20700 ft 430 kts
2026-05-07 18:00 40.57159 18.99487 20552 ft 417 kts
2026-05-07 18:00 40.59897 19.00584 20421 ft 407 kts 19°
2026-05-07 18:00 40.62346 19.02210 20267 ft 381 kts 30°
2026-05-07 18:01 40.64509 19.04076 19797 ft 365 kts 31°
2026-05-07 18:01 40.66602 19.05900 19108 ft 357 kts 31°
2026-05-07 18:01 40.68655 19.07685 18390 ft 352 kts 31°
2026-05-07 18:01 40.70664 19.09429 17547 ft 348 kts 32°
2026-05-07 18:02 40.74729 19.12970 16618 ft 347 kts 32°
2026-05-07 18:02 40.76741 19.14731 16175 ft 347 kts 32°
2026-05-07 18:02 40.78727 19.16469 15774 ft 345 kts 32°
2026-05-07 18:03 40.80725 19.18220 15334 ft 345 kts 32°
2026-05-07 18:03 40.82718 19.19968 14903 ft 346 kts 32°
2026-05-07 18:03 40.84710 19.21714 14624 ft 341 kts 32°
2026-05-07 18:03 40.86682 19.23440 14235 ft 340 kts 32°
2026-05-07 18:04 40.88650 19.25167 13818 ft 338 kts 32°
2026-05-07 18:04 40.90594 19.26878 13044 ft 334 kts 33°
2026-05-07 18:04 40.92499 19.28554 12533 ft 321 kts 33°
2026-05-07 18:04 40.94305 19.30178 12113 ft 309 kts 38°
2026-05-07 18:05 40.95902 19.32084 11719 ft 313 kts 45°
2026-05-07 18:05 40.97474 19.34116 11312 ft 317 kts 45°
2026-05-07 18:05 40.99052 19.36156 10904 ft 317 kts 45°
2026-05-07 18:05 41.00633 19.38203 10475 ft 319 kts 45°
2026-05-07 18:06 41.02204 19.40240 10202 ft 314 kts 45°
2026-05-07 18:06 41.03763 19.42264 9835 ft 313 kts 45°
2026-05-07 18:06 41.05313 19.44273 9463 ft 311 kts 45°
2026-05-07 18:06 41.06856 19.46271 9097 ft 309 kts 45°
2026-05-07 18:07 41.08389 19.48257 8735 ft 307 kts 45°
2026-05-07 18:07 41.09913 19.50234 8387 ft 306 kts 46°
2026-05-07 18:07 41.11427 19.52200 8037 ft 304 kts 46°
2026-05-07 18:07 41.12931 19.54156 7698 ft 302 kts 46°
2026-05-07 18:08 41.14421 19.56095 7316 ft 297 kts 46°
2026-05-07 18:08 41.15857 19.58035 6616 ft 292 kts 53°
2026-05-07 18:08 41.16902 19.60287 6068 ft 280 kts 70°
2026-05-07 18:08 41.17429 19.62645 5715 ft 262 kts 84°
2026-05-07 18:09 41.17620 19.64978 5400 ft 247 kts 87°
2026-05-07 18:09 41.17790 19.67231 5041 ft 245 kts 87°
2026-05-07 18:09 41.17962 19.69465 4705 ft 242 kts 86°
2026-05-07 18:09 41.18202 19.71658 4357 ft 240 kts 74°
2026-05-07 18:10 41.19068 19.73514 4044 ft 238 kts 45°
2026-05-07 18:10 41.20491 19.74559 3766 ft 234 kts 14°
2026-05-07 18:10 41.22085 19.74634 3527 ft 226 kts 355°
2026-05-07 18:10 41.23592 19.74436 3288 ft 207 kts 355°
2026-05-07 18:11 41.24961 19.74253 3035 ft 189 kts 355°
2026-05-07 18:11 41.25794 19.74142 2938 ft 173 kts 355°
2026-05-07 18:11 41.27312 19.73939 2704 ft 158 kts 355°
2026-05-07 18:11 41.28393 19.73796 2542 ft 154 kts 356°
2026-05-07 18:12 41.29453 19.73655 2387 ft 152 kts 355°
2026-05-07 18:12 41.30501 19.73515 2238 ft 151 kts 355°
2026-05-07 18:12 41.31535 19.73375 2091 ft 149 kts 354°
2026-05-07 18:12 41.32567 19.73214 1950 ft 149 kts 354°
2026-05-07 18:13 41.33591 19.73079 1657 ft 146 kts 355°
2026-05-07 18:13 41.34606 19.72956 1442 ft 146 kts 355°
2026-05-07 18:13 41.35624 19.72836 1195 ft 147 kts 354°
2026-05-07 18:13 41.36640 19.72696 995 ft 147 kts 353°
2026-05-07 18:14 41.37658 19.72566 759 ft 146 kts 353°
2026-05-07 18:14 41.38672 19.72429 554 ft 147 kts 354°
2026-05-07 18:14 41.39683 19.72298 314 ft 144 kts 354°
2026-05-07 18:14 41.40660 19.72164 145 ft 133 kts 353°
2026-05-07 18:15 41.41382 19.72069 125 ft 63 kts 354°
2026-05-07 18:15 41.41625 19.72033 122 ft 28 kts 353°
2026-05-07 18:15 41.41815 19.72014 122 ft 22 kts 354°
2026-05-07 18:15 41.41878 19.71945 122 ft 12 kts 272°
2026-05-07 18:16 41.41870 19.71826 124 ft 13 kts 264°
2026-05-07 18:16 41.41860 19.71696 119 ft 15 kts 263°
2026-05-07 18:16 41.41856 19.71659 121 ft 3 kts 263°
2026-05-07 18:16 41.41855 19.71640 123 ft 1 kts 263°
2026-05-07 18:17 41.41853 19.71621 123 ft 4 kts 263°
2026-05-07 18:17 41.41882 19.71593 120 ft 10 kts 351°
2026-05-07 18:17 41.41965 19.71579 120 ft 13 kts 353°
2026-05-07 18:17 41.42065 19.71566 120 ft 15 kts 355°
2026-05-07 18:18 41.42121 19.71557 115 ft 6 kts 354°
2026-05-07 18:18 41.42146 19.71531 118 ft 5 kts 287°
2026-05-07 18:18 41.42145 19.71492 125 ft 1 kts 266°
2026-05-07 18:18 41.42145 19.71489 126 ft 0 kts 266°